Tracking 25744 objects as of 24-Jun-2022
HD Live streaming from Space Station
objects crossing your sky now

SL-8 DEB

Track SL-8 DEB now!
10-day predictions


NORAD ID: 6063
Int'l Code: 1972-043C
Perigee: 600.7 km
Apogee: 609.0 km
Inclination: 74.0 °
Period: 96.6 minutes
Semi major axis: 6975 km
RCS: 0.0135 m2 (small)
Launch date: June 23, 1972
Source: Commonwealth of Independent States (former USSR) (CIS)
Launch site: PLESETSK MISSILE AND SPACE COMPLEX (PKMTR)

Note: This is SATELLITE DEBRIS
aabbcc
Your satellite tracking list
Your tracking list is empty




NASA's NSSDC Master Catalog

Two Line Element Set (TLE):
1 06063U 72043C   22175.27115901  .00003870  00000-0  40416-3 0  9990
2 06063  74.0349 128.2302 0005996 272.8451  87.2044 14.90068962653802
Source of the keplerian elements: AFSPC